Location: Unspecified
(0.0000°N, 0.0000°E)
Time: 23:52:12
(UTC+00:00)

Vanguard 2 - Pass Details

Date: 08 October 2020
Orbit: 554 x 2937 km, 32.9° (Epoch: 28 October)

Event Time Altitude Azimuth Distance (km) Brightness Sun altitude
Rises 22:40:02 0° 242° (WSW) 6,499 12.5 -72.1°
Reaches altitude 10° 22:44:11 10° 245° (WSW) 5,632 12.0 -73.0°
Enters shadow 22:48:58 24° 249° (WSW) 4,676 11.5 -74.1°
Maximum altitude 23:01:54 66° 323° (NW) 3,029 - -77.0°
Drops below altitude 10° 23:16:57 10° 43° (NE) 4,861 - -80.1°
Sets 23:20:16 0° 47° (NE) 5,602 - -80.7°
